EUTELSAT 7B

Last updated on Sun Apr 12 2026 00:02:53 GMT+0000 (Coordinated Universal Time)

1 39163U 13022A 26101.30812281 .00000049 00000+0 00000+0 0 9996 2 39163 0.0702 12.3608 0006142 0.5878 304.5081 1.00271049 47279
UTC large
Height (km)
Speed (km/s)
/
Latitude / Longitude
Inclination (degrees)
Orbital Period (minutes)
Azimuth
Elevation
Range (km)
Doppler Factor

Next 0 passes for location: London (51.5072 / 0.1276)

Sorry there are no passes over London.
EUTELSAT 7B